Bloomington, IN

7:45 PM EST on December 12, 2019 (GMT -0500)
Monroe County

Weather History for KBMG - August, 2019

Change the Weather History Date:

Friday, August 16, 2019

  Actual Average Record
Temperature  
Mean Temperature 72 °F 73 °F  
Max Temperature 85 °F 85 °F 95 °F (2007)
Min Temperature 59 °F 62 °F 50 °F (2004)
Degree Days  
Heating Degree Days 0 0  
Month to date heating degree days 0 0  
Since 1 June heating degree days 14 17  
Since 1 July heating degree days 0 2  
Cooling Degree Days 7 8  
Month to date cooling degree days 145 143  
Year to date cooling degree days 852 709  
Since 1 June cooling degree days 721 627  
Growing Degree Days 22 (Base 50)    
Moisture  
Dew Point 66 °F    
Average Humidity 80    
Maximum Humidity 100    
Minimum Humidity 59    
Precipitation  
Precipitation T in 0.10 in 2.12 in (2015)
Month to date precipitation 0.65 1.66  
Year to date precipitation 32.69 31.33  
Sea Level Pressure  
Sea Level Pressure 29.97 in    
Wind  
Wind Speed 4 mph (South)    
Max Wind Speed 13 mph    
Max Gust Speed 17 mph    
Visibility 10 miles    
Events      
T = Trace of Precipitation, MM = Missing Value Source: NWS Daily Summary

Daily Weather History Graph

Daily Weather History Graph

Search for Another Location

Airport or City:

Astronomy

Aug. 16, 2019 Rise Set
Actual Time 7:00 AM EDT 8:40 PM EDT
Civil Twilight 6:31 AM EDT 9:09 PM EDT
Nautical Twilight 5:57 AM EDT 9:43 PM EDT
Astronomical Twilight 5:20 AM EDT 10:19 PM EDT
Moon 9:40 PM EDT (8/16) 7:51 AM EDT (8/16)
Length of Visible Light 14h 37m
Length of Day
13h 40m
Full, 99% of the Moon is Illuminated
Aug 16
Full
Aug 23
Last Quarter
Aug 30
New
Sep 5
First Quarter
Sep 14
Full

Hourly Weather History & Observations

Time (EDT) Temp. Heat Index Dew Point Humidity Pressure Visibility Wind Dir Wind Speed Gust Speed Precip Events Conditions
12:53 AM 63.0 °F - 63.0 °F 100% 30.00 in 10.0 mi Calm Calm - N/A   Clear
1:53 AM 64.0 °F - 64.0 °F 100% 29.99 in 10.0 mi Calm Calm - N/A   Clear
2:53 AM 62.1 °F - 62.1 °F 100% 30.00 in 10.0 mi Calm Calm - N/A   Clear
3:53 AM 61.0 °F - 61.0 °F 100% 29.98 in 9.0 mi Calm Calm - N/A   Clear
4:53 AM 63.0 °F - 62.1 °F 97% 29.98 in 10.0 mi Calm Calm - N/A   Clear
5:53 AM 61.0 °F - 61.0 °F 100% 29.97 in 3.0 mi Calm Calm - N/A   Clear
6:53 AM 60.1 °F - 60.1 °F 100% 29.98 in 9.0 mi Calm Calm - N/A   Clear
7:53 AM 63.0 °F - 63.0 °F 100% 29.99 in 10.0 mi Calm Calm - N/A   Clear
8:53 AM 70.0 °F - 66.9 °F 90% 29.99 in 10.0 mi SSE 4.6 mph - N/A   Clear
9:53 AM 72.0 °F - 66.9 °F 84% 29.99 in 10.0 mi SE 4.6 mph - N/A   Partly Cloudy
10:53 AM 75.9 °F - 68.0 °F 76% 30.01 in 10.0 mi South 8.1 mph - N/A   Clear
11:53 AM 78.1 °F - 68.0 °F 71% 30.01 in 10.0 mi South 5.8 mph - N/A   Mostly Cloudy
12:53 PM 78.1 °F - 68.0 °F 71% 30.00 in 10.0 mi SSW 8.1 mph - 0.00 in   Mostly Cloudy
1:53 PM 81.0 °F 84.1 °F 69.1 °F 67% 29.99 in 10.0 mi SSW 10.4 mph - N/A   Mostly Cloudy
2:53 PM 82.0 °F 85.5 °F 69.1 °F 65% 29.97 in 10.0 mi South 8.1 mph - N/A   Scattered Clouds
3:53 PM 84.0 °F 87.8 °F 69.1 °F 61% 29.95 in 10.0 mi Variable 6.9 mph - N/A   Mostly Cloudy
4:53 PM 84.0 °F 87.0 °F 68.0 °F 58% 29.93 in 10.0 mi South 8.1 mph - N/A   Scattered Clouds
5:53 PM 84.0 °F 88.4 °F 70.0 °F 63% 29.93 in 10.0 mi SSW 6.9 mph - N/A   Mostly Cloudy
6:53 PM 81.0 °F 84.1 °F 69.1 °F 67% 29.93 in 10.0 mi South 9.2 mph - N/A   Scattered Clouds
7:53 PM 78.1 °F - 69.1 °F 74% 29.94 in 10.0 mi SW 5.8 mph - N/A   Clear
8:53 PM 75.0 °F - 69.1 °F 82% 29.93 in 10.0 mi South 4.6 mph - N/A   Clear
9:53 PM 72.0 °F - 69.1 °F 91% 29.94 in 10.0 mi Calm Calm - N/A   Clear
10:53 PM 69.1 °F - 68.0 °F 96% 29.94 in 10.0 mi Calm Calm - N/A   Clear
11:53 PM 71.1 °F - 69.1 °F 93% 29.93 in 10.0 mi SSW 5.8 mph - N/A   Clear